Augusta, ME

1:12 AM EST on February 25, 2017 (GMT -0500)
Augusta State

Weather History for KAUG - May, 2013

Change the Weather History Date:

Wednesday, May 8, 2013

  Actual Average Record
Temperature  
Mean Temperature 60 °F 52 °F  
Max Temperature 75 °F 63 °F 85 °F (1957)
Min Temperature 48 °F 42 °F 26 °F (1950)
Degree Days  
Heating Degree Days 4 13  
Month to date heating degree days 111  
Since 1 July heating degree days 7115  
Cooling Degree Days 0 0  
Month to date cooling degree days 0  
Year to date cooling degree days 0  
Growing Degree Days 10 (Base 50)    
Moisture  
Dew Point 53 °F    
Average Humidity 85    
Maximum Humidity 100    
Minimum Humidity 48    
Precipitation  
Precipitation 0.12 in 0.12 in 1.02 in (1994)
Month to date precipitation 0.99  
Year to date precipitation 13.19  
Sea Level Pressure  
Sea Level Pressure 30.19 in    
Wind  
Wind Speed 5 mph (SSE)    
Max Wind Speed 14 mph    
Max Gust Speed 24 mph    
Visibility 6 miles    
Events Fog , Rain    
T = Trace of Precipitation, MM = Missing Value Source: NWS Daily Summary

Daily Weather History Graph

Daily Weather History Graph

Search for Another Location

Airport or City:

Trip Planner

Search our weather history database for the weather conditions in past years. The results will help you decide how hot, cold, wet, or windy it might be!

Date:

Astronomy

May. 08, 2013 Rise Set
Actual Time 5:20 AM EDT 7:51 PM EDT
Civil Twilight 4:47 AM EDT 8:24 PM EDT
Nautical Twilight 4:06 AM EDT 9:05 PM EDT
Astronomical Twilight 3:20 AM EDT 9:52 PM EDT
Moon 4:29 AM EDT (5/8) 6:44 PM EDT (5/8)
Length of Visible Light 15h 37m
Length of Day
14h 31m
Waning Crescent, 2% of the Moon is Illuminated
May 8
Waning Crescent
May 9
New
May 18
First Quarter
May 25
Full
May 31
Last Quarter

Hourly Weather History & Observations

Time (EDT) Temp. Dew Point Humidity Pressure Visibility Wind Dir Wind Speed Gust Speed Precip Events Conditions
12:08 AM 53.6 °F 51.8 °F 94% 30.17 in 1.2 mi SSE 6.9 mph - N/A   Mostly Cloudy
12:19 AM 53.6 °F 51.8 °F 94% 30.17 in 3.0 mi South 4.6 mph - N/A   Overcast
12:53 AM 52.0 °F 52.0 °F 100% 30.17 in 9.0 mi SSE 5.8 mph - N/A   Mostly Cloudy
1:53 AM 52.0 °F 51.1 °F 97% 30.16 in 7.0 mi South 4.6 mph - N/A   Overcast
2:53 AM 51.1 °F 50.0 °F 96% 30.16 in 9.0 mi SSE 3.5 mph - N/A   Overcast
3:50 AM 48.2 °F 48.2 °F 100% 30.16 in 1.5 mi Calm Calm - N/A   Overcast
3:53 AM 48.9 °F 48.9 °F 100% 30.17 in 0.8 mi Calm Calm - N/A   Overcast
4:02 AM 48.2 °F 48.2 °F 100% 30.16 in 0.2 mi Calm Calm - N/A Fog Fog
4:53 AM 48.9 °F 48.9 °F 100% 30.17 in 0.5 mi Calm Calm - N/A Fog Fog
5:12 AM 48.2 °F 48.2 °F 100% 30.17 in 0.2 mi Calm Calm - N/A Fog Fog
5:53 AM 48.9 °F 48.9 °F 100% 30.19 in 0.2 mi Calm Calm - 0.01 in Fog Fog
6:53 AM 50.0 °F 50.0 °F 100% 30.21 in 0.2 mi Calm Calm - N/A Fog Fog
7:53 AM 52.0 °F 52.0 °F 100% 30.23 in 0.5 mi Calm Calm - N/A Fog Fog
8:08 AM 51.8 °F 51.8 °F 100% 30.23 in 1.2 mi Calm Calm - N/A   Overcast
8:15 AM 51.8 °F 51.8 °F 100% 30.23 in 3.0 mi Calm Calm - N/A   Overcast
8:23 AM 53.6 °F 51.8 °F 94% 30.23 in 1.8 mi Calm Calm - N/A   Overcast
8:32 AM 53.6 °F 51.8 °F 94% 30.23 in 3.0 mi Calm Calm - N/A   Overcast
8:53 AM 55.0 °F 54.0 °F 96% 30.24 in 10.0 mi SE 3.5 mph - N/A   Scattered Clouds
9:53 AM 66.9 °F 55.0 °F 66% 30.25 in 10.0 mi Variable 4.6 mph - N/A   Clear
10:53 AM 71.1 °F 53.1 °F 53% 30.24 in 10.0 mi SSW 10.4 mph 16.1 mph N/A   Clear
11:53 AM 73.0 °F 52.0 °F 48% 30.23 in 10.0 mi South 11.5 mph 19.6 mph N/A   Clear
12:53 PM 73.9 °F 53.1 °F 48% 30.22 in 10.0 mi South 10.4 mph 17.3 mph N/A   Partly Cloudy
1:53 PM 73.0 °F 54.0 °F 51% 30.22 in 10.0 mi South 10.4 mph - N/A   Mostly Cloudy
2:53 PM 72.0 °F 55.0 °F 55% 30.21 in 10.0 mi South 11.5 mph 20.7 mph N/A   Partly Cloudy
3:53 PM 71.1 °F 55.9 °F 59% 30.19 in 10.0 mi SSE 13.8 mph 24.2 mph N/A   Mostly Cloudy
4:53 PM 70.0 °F 55.9 °F 61% 30.19 in 10.0 mi South 11.5 mph 21.9 mph N/A   Partly Cloudy
5:53 PM 68.0 °F 55.9 °F 65% 30.18 in 10.0 mi South 12.7 mph 18.4 mph N/A   Partly Cloudy
6:53 PM 66.0 °F 57.0 °F 73% 30.18 in 10.0 mi South 11.5 mph 17.3 mph N/A   Scattered Clouds
7:53 PM 62.1 °F 57.0 °F 84% 30.18 in 10.0 mi South 6.9 mph - N/A   Partly Cloudy
8:53 PM 61.0 °F 55.9 °F 83% 30.18 in 10.0 mi SE 5.8 mph - N/A   Mostly Cloudy
9:53 PM 59.0 °F 55.9 °F 90% 30.17 in 10.0 mi SSE 5.8 mph - N/A   Partly Cloudy
10:53 PM 57.9 °F 55.0 °F 90% 30.16 in 10.0 mi SE 8.1 mph - N/A   Overcast
11:06 PM 57.2 °F 55.4 °F 94% 30.16 in 8.0 mi SSE 8.1 mph - 0.00 in Rain Light Rain
11:17 PM 57.2 °F 55.4 °F 94% 30.16 in 6.0 mi SSE 5.8 mph - 0.00 in Rain Light Rain
11:32 PM 57.2 °F 55.4 °F 94% 30.16 in 6.0 mi SSE 5.8 mph - 0.04 in Rain Light Rain
11:53 PM 55.9 °F 55.0 °F 97% 30.14 in 4.0 mi SE 4.6 mph - 0.11 in Rain Rain